Preview of NWS' New Version of Forecast
This preview is not operational and should not be used for support decisions.
Latest weather observations around

Santa Ana, John Wayne Airport-Orange County Airport (KSNA)

Using English Units (Switch to International System of Units)
Date/ Time (PDT) Wind (mph) Vis. (mi) Weather Sky Cond. Temp (°F) Rel. Humidity Wind Chill (°F) Heat Index (°F) Pressure Precip. (in)
Air Dwpt 6 hour Altimeter (inHg) Sea level (inHg) 1 hr 3 hr 6 hr
Max Min
Aug 25 10:53 SW 5 10 Clear CLR 83 65     55%   85 29.97 29.96      
Aug 25 09:53 Calm 9 Clear CLR 78 65     64%   79 29.98 29.97      
Aug 25 08:53 3 9 Clear CLR 75 64     69%   75 29.98 29.98      
Aug 25 07:53 Calm 8 Clear CLR 71 63     76%   71 29.97 29.97      
Aug 25 06:53 Calm 7 Clear CLR 69 63     81%     29.96 29.96      
Aug 25 05:53 Calm 10 Clear CLR 69 63     81%     29.95 29.95      
Aug 25 04:53 Calm 9 Clear CLR 70 63     78%     29.95 29.94      
Aug 25 03:53 Calm 9 Clear CLR 70 63     78%     29.95 29.94      
Aug 25 02:53 Calm 9 Clear CLR 70 63     78%     29.96 29.95      
Aug 25 02:04 Calm 9 Mostly Clear FEW010 71 63     76%   71 29.95        
Aug 25 01:53 Calm 9 Mostly Cloudy BKN010 71 63     76%   71 29.96 29.95      
Aug 25 00:53 Calm 9 Cloudy OVC010 71 64     79%   72 29.97 29.96      
Aug 24 23:53 NW 3 9 Cloudy OVC010 71 64     79%   72 29.97 29.96      
Aug 24 23:20 Calm 9 Mostly Cloudy BKN010 71 64     79%   72 29.97        
Aug 24 23:07 3 9 Mostly Clear FEW010 71 64     79%   72 29.96        
Aug 24 22:53 SSW 3 9 Mostly Cloudy BKN009 71 64     79%   72 29.97 29.96      
Aug 24 22:27 SW 5 9 Partly Cloudy SCT009 71 64     79%   72 29.96        
Aug 24 21:53 SSW 5 9 Mostly Cloudy BKN009 71 64     79%   72 29.96 29.96      
Aug 24 21:49 6 9 Mostly Cloudy BKN009 72 64     78%   72 29.96        
Aug 24 21:35 SSW 6 9 Partly Cloudy SCT009 71 64     79%   72 29.96        
Aug 24 20:53 SSW 8 9 Mostly Clear FEW010 71 64     79%   72 29.94 29.94      
Aug 24 19:53 SSW 10 10 Mostly Clear FEW012 72 64     76%   72 29.93 29.92      
Aug 24 18:53 S 10 10 Mostly Clear FEW014 76 64     67%   76 29.9 29.9      
Aug 24 17:53 SSW 10 10 Clear CLR 80 63     56%   81 29.89 29.89      
Aug 24 16:53 SSW 9 10 Mostly Clear FEW060 82 63     53%   83 29.89 29.89      
Aug 24 15:53 SSW 10 10 Mostly Clear FEW060 FEW250 84 62     48%   85 29.9 29.89      
Aug 24 14:53 7 10 Mostly Clear FEW060 FEW250 85 63     48%   86 29.9 29.9      
Aug 24 13:53 SW 9 10 Clear CLR 83 62     49%   84 29.92 29.91      
Aug 24 12:53 SW 9 10 Clear CLR 82 63     53%   83 29.92 29.91      
Aug 24 11:53 SW 8 10 Clear CLR 82 64     55%   84 29.92 29.91      
Aug 24 10:53 SW 7 10 Clear CLR 81 64     56%   83 29.92 29.92      
Aug 24 09:53 SSW 6 10 Clear CLR 77 63     62%   77 29.92 29.92      
Aug 24 08:53 NW 3 9 Clear CLR 73 62     68%   73 29.92 29.91      
Aug 24 07:53 NNW 3 8 Clear CLR 71 61     70%   71 29.92 29.92      
Aug 24 06:53 Calm 8 Clear CLR 69 61     75%     29.91 29.91      
Aug 24 05:53 Calm 10 Clear CLR 68 61     78%     29.9 29.89      
Aug 24 04:53 Calm 10 Clear CLR 68 61     78%     29.89 29.88      
Aug 24 03:53 Calm 10 Clear CLR 68 61     78%     29.88 29.88      
Aug 24 02:53 Calm 10 Clear CLR 69 61     75%     29.9 29.89      
Aug 24 01:53 Calm 10 Clear CLR 69 61     75%     29.91 29.9      
Aug 24 00:53 Calm 10 Clear CLR 69 61     75%     29.91 29.91      
Aug 23 23:53 S 5 10 Clear CLR 69 61     75%     29.9 29.9      
Aug 23 22:53 S 6 10 Partly Cloudy FEW020 SCT250 69 61     75%     29.88 29.88      
Aug 23 21:53 S 5 10 Partly Cloudy FEW020 SCT250 70 61     73%     29.87 29.86      
Aug 23 20:53 SW 7 10 Partly Cloudy FEW020 SCT250 71 61     70%   71 29.85 29.84      
Aug 23 19:53 SSW 9 10 Mostly Cloudy BKN250 71 60     68%   71 29.82 29.81      
Aug 23 18:53 SSW 10 10 Partly Cloudy FEW020 SCT250 73 60     64%   73 29.8 29.8      
Aug 23 17:53 SSW 9 10 Mostly Clear FEW250 75 60     60%   75 29.8 29.8      
Aug 23 16:53 S 10 10 Mostly Clear FEW250 76 59     56%   76 29.81 29.81      
Aug 23 15:53 SSW 10 10 Mostly Clear FEW250 77 60     56%   77 29.82 29.82      
Aug 23 14:53 SSW 9 10 Mostly Clear FEW250 77 60     56%   77 29.84 29.84      
Aug 23 13:53 SW 11 10 Mostly Clear FEW250 76 59     56%   76 29.87 29.86      
Aug 23 12:53 SSW 13 10 Mostly Clear FEW027 76 59     56%   76 29.89 29.88      
Aug 23 11:53 SW 10 10 Clear CLR 75 58     55%   75 29.89 29.88      
Aug 23 10:53 S 10 10 Mostly Clear FEW028 75 58     55%   75 29.9 29.89      
Aug 23 10:17 S 11 10 Partly Cloudy SCT028 75 58     55%   75 29.89        
Aug 23 09:53 5 10 Mostly Cloudy BKN026 75 58     55%   75 29.89 29.89      
Aug 23 08:53 S 8 9 Mostly Cloudy SCT020 BKN024 72 58     61%   72 29.88 29.88      
Aug 23 07:53 ESE 8 10 Mostly Cloudy BKN019 70 58     66%     29.87 29.87      
Aug 23 06:53 E 7 8 Cloudy OVC019 69 58     68%     29.86 29.85      
Aug 23 05:53 E 6 9 Cloudy OVC019 69 58     68%     29.85 29.84      
Aug 23 04:53 ESE 5 9 Cloudy OVC017 68 58     70%     29.83 29.82      
Aug 23 03:53 E 5 9 Cloudy OVC017 68 58     70%     29.82 29.82      
Aug 23 02:53 E 5 9 Cloudy OVC016 67 58     73%     29.82 29.82      
Aug 23 02:45 ESE 5 9 Cloudy OVC015 67 58     73%     29.82        
Aug 23 02:11 ENE 3 9 Cloudy OVC014 68 59     73%     29.82        
Aug 23 01:53 ESE 5 9 Cloudy OVC015 68 58     70%     29.82 29.81      
Aug 23 00:53 SE 6 9 Cloudy OVC015 68 59     73%     29.81 29.8      
Aug 23 00:00 ESE 6 9 Cloudy OVC015 68 59     73%     29.8        
Aug 22 23:53 SE 5 9 Mostly Cloudy SCT018 BKN250 68 59     73%     29.8 29.8      
Aug 22 22:53 SE 5 9 Mostly Cloudy SCT012 BKN250 67 59     76%     29.8 29.79      
Aug 22 21:53 SSW 3 9 Mostly Clear FEW010 68 59     73%     29.8 29.79      
Aug 22 20:53 S 7 9 Partly Cloudy FEW012 FEW140 SCT250 68 59     73%     29.79 29.79      
Aug 22 19:53 S 10 9 Partly Cloudy FEW012 FEW140 SCT250 69 59     70%     29.78 29.78      
Aug 22 18:53 S 13 8 Partly Cloudy FEW012 FEW140 SCT250 71 60     68%   71 29.78 29.77      
Aug 22 17:53 S 13 9 Partly Cloudy FEW012 FEW140 SCT250 73 60     64%   73 29.77 29.76      
Aug 22 16:53 SSW 16 10 Mostly Cloudy FEW012 BKN250 75 60     60%   75 29.76 29.76      
Aug 22 15:53 S 14 10 Mostly Cloudy FEW015 BKN250 76 61     60%   76 29.75 29.75      
Aug 22 14:53 SSW 11 9 Mostly Clear FEW013 FEW250 75 61     62%   75 29.76 29.75      
Aug 22 13:53 SSW 14 10 Mostly Clear FEW013 75 61     62%   75 29.78 29.78      
Aug 22 12:53 SW 11 10 Mostly Clear FEW013 76 61     60%   76 29.79 29.79      
Aug 22 11:53 SW 11 10 Mostly Clear FEW013 76 61     60%   76 29.81 29.8      
May 14 17:53 W 8 10 Clear CLR 65 52     63%     29.94 29.94      
May 14 15:53 SW 9 10 Mostly Clear FEW029 67 51     57%     29.96 29.96      
May 14 08:53 3 10 Partly Cloudy SCT017 63 52     67%     29.99 29.99      
May 13 20:53 W 7 10 Clear CLR 61 54     78%     29.98 29.98      
May 13 14:53 SW 10 10 Partly Cloudy SCT044 69 50     51%     29.98 29.98      
May 12 18:53 S 10 10 Mostly Cloudy FEW043 BKN050 62 52     70%     29.96 29.96      
May 12 04:53 SE 3 8 Light Rain SCT013 BKN018 OVC025 57 55     93%     29.91 29.91 0   0
May 11 23:28 5 10 Cloudy BKN010 BKN015 OVC027 59 57     93%     29.9        
May 11 21:53 SE 8 8 Cloudy SCT013 BKN018 OVC036 60 56     86%     29.87 29.87      
May 11 18:53 SE 9 9 Cloudy FEW011 SCT022 OVC026 60 55     83%     29.82 29.82      
May 11 17:53 SSE 13 10 Cloudy SCT020 BKN024 OVC031 61 54     78%     29.83 29.82      
May 11 09:53 SSE 16 9 Cloudy SCT027 OVC030 65 52     63%     29.87 29.87      
Jun 11 23:53 W 7 10 Cloudy OVC037 63 53     70%     29.99 29.98      
Jun 11 19:53 S 8 10 Partly Cloudy FEW023 SCT028 SCT035 64 54     70%     29.93 29.93      
Jun 11 14:53 SSW 18 10 Partly Cloudy FEW033 SCT038 71 53     53%   70 29.92 29.91      
Jun 11 12:53 SSE 10 10 Mostly Cloudy SCT028 BKN036 69 53     57%     29.92 29.92      
Jun 11 07:53 ESE 8 10 Cloudy BKN022 BKN030 OVC035 62 56     80%     29.89 29.89      
Jun 08 14:53 W 9 9 Mostly Clear FEW027 FEW250 72 58     61%   72 29.98 29.97      
Jun 07 22:53 3 7 Cloudy FEW013 OVC015 63 57     81%     29.98 29.98      
Jun 07 19:53 SSW 9 8 Cloudy SCT013 OVC016 63 57     81%     29.96 29.96      
Jun 07 08:59 SW 5 4 Fog/Mist SCT007 BKN010 OVC014 62 60     93%     29.95        
Jun 06 12:53 SW 7 10 Cloudy OVC013 66 59     78%     29.95 29.95      
Jun 06 00:53 S 5 10 Cloudy OVC012 63 58     84%     29.9 29.89